Home   Weather   Adelaide   Past weeks

Flag for Australia Past Weather in Adelaide, South Australia, Australia — Yesterday and Last 2 Weeks

Now
61 °F

Passing clouds.


Feels Like: 61 °F
Forecast: 54 / 65 °F
Wind: 7 mph from Southeast

Location: Adelaide Airport

Current Time: Apr 28, 2017 at 8:01:37 pm

Latest Report: Apr 28, 2017 at 7:00 pm


Visibility: N/A

Pressure: 30.30 "Hg

Humidity: 77%

Dew Point: 54 °F

Location of AdelaideLocation

Past Weather in Adelaide — Graph

°F

Adelaide Temperature Yesterday

Maximum temperature yesterday: 63 °F (at 2:00 pm)
Minimum temperature yesterday: 50 °F (at 12:30 am)
Average temperature yesterday: 56 °F

High & Low Weather Summary for the Past Weeks

 TemperatureHumidityPressure
High88 °F (Apr 19, 1:00 pm)100% (Apr 20, 10:30 pm)30.36 "Hg (Apr 20, 10:30 pm)
Low48 °F (Apr 14, 6:30 am)18% (Apr 18, 3:00 pm)29.86 "Hg (Apr 25, 2:00 pm)
Average65 °F67%30.13 "Hg
* Reported Apr 13 6:30 pm — Apr 28 7:00 pm, Adelaide, Weather by CustomWeather, © 2017

Note: Actual official high and low records may vary slightly from our data, if they occured in-between our weather recording intervals... More about our weather records

Advertising

Adelaide Weather History for the Previous 24 Hours

Scroll right to see more
 ConditionsComfort  
Time TempWeatherWind HumidityBarometerVisibility
7:00 pm
Fri, Apr 28
61 °FPassing clouds.7 mph77%30.30 "HgN/A
6:30 pm61 °FScattered showers. Passing clouds.7 mph77%30.30 "HgN/A
6:00 pm63 °FPartly sunny.5 mph68%30.30 "HgN/A
5:00 pm63 °FPartly sunny.8 mph64%30.30 "HgN/A
4:30 pm63 °FPartly sunny.9 mph68%30.30 "HgN/A
4:00 pm63 °FPartly sunny.10 mph64%30.30 "HgN/A
3:30 pm64 °FPartly sunny.9 mph60%30.30 "HgN/A
3:00 pm64 °FPartly sunny.8 mph60%30.30 "HgN/A
2:30 pm64 °FPartly sunny.8 mph73%30.30 "HgN/A
2:00 pm63 °FPartly sunny.6 mph73%30.30 "HgN/A
1:30 pm63 °FPartly sunny.5 mph77%30.33 "HgN/A
1:00 pm61 °FPartly sunny.8 mph88%30.33 "HgN/A
12:41 pm59 °FScattered showers. Broken clouds.9 mph94%30.33 "HgN/A
12:30 pm59 °FScattered showers. Partly sunny.10 mph94%30.33 "HgN/A
12:00 pm63 °FScattered showers. Broken clouds.2 mph83%30.36 "HgN/A
11:30 am61 °FScattered showers. Partly sunny.3 mph88%30.36 "HgN/A
11:00 am59 °FScattered showers. Broken clouds.6 mph94%30.36 "HgN/A
10:30 am59 °FSprinkles. Broken clouds.8 mph94%30.36 "Hg3 mi
9:30 am59 °FSprinkles. Partly sunny.6 mph94%30.36 "Hg5 mi
9:00 am57 °FSprinkles. Broken clouds.8 mph100%30.36 "Hg3 mi
8:30 am57 °FScattered showers. Partly sunny.9 mph100%30.36 "HgN/A
8:00 am57 °FScattered showers. Partly sunny.7 mph100%30.36 "HgN/A
7:41 am57 °FSprinkles. Partly sunny.7 mph100%30.33 "Hg4 mi
7:30 am57 °FSprinkles. Broken clouds.5 mph100%30.33 "Hg2 mi
7:00 am57 °FRain showers. Partly cloudy.5 mph94%30.33 "Hg1 mi
6:47 am57 °FRain showers. Partly cloudy.5 mph94%30.33 "Hg2 mi
6:26 am57 °FSprinkles. Passing clouds.2 mph94%30.33 "Hg4 mi
6:00 am55 °FRain showers. Mostly cloudy.6 mph100%30.33 "Hg2 mi
5:41 am55 °FRain showers. Mostly cloudy.7 mph100%30.33 "Hg2 mi
5:30 am55 °FSprinkles. Partly cloudy.6 mph100%30.33 "Hg4 mi
5:00 am55 °FPassing clouds.6 mph100%30.33 "Hg4 mi
4:30 am55 °FPassing clouds.7 mph100%30.30 "HgN/A
4:00 am55 °FPartly cloudy.8 mph100%30.30 "HgN/A
3:41 am55 °FPassing clouds.7 mph94%30.30 "HgN/A
3:30 am55 °FFog.6 mph94%30.30 "HgN/A
3:00 am55 °FPartly cloudy.6 mph100%30.30 "HgN/A
2:42 am55 °FPartly cloudy.2 mph100%30.33 "HgN/A
2:26 am55 °FDrizzle. Mostly cloudy.5 mph100%30.33 "Hg2 mi
2:00 am55 °FSprinkles. Mostly cloudy.5 mph100%30.33 "HgN/A
1:30 am55 °FRain showers. Mostly cloudy.7 mph94%30.33 "Hg2 mi
1:09 am55 °FDrizzle. Mostly cloudy.6 mph94%30.33 "Hg2 mi
12:30 am55 °FScattered showers. Partly cloudy.7 mph94%30.33 "HgN/A
12:00 am55 °FPassing clouds.6 mph94%30.33 "HgN/A
11:30 pm
Thu, Apr 27
55 °FPassing clouds.7 mph94%30.33 "HgN/A
11:00 pm57 °FSprinkles. Partly cloudy.8 mph88%30.33 "Hg6 mi
10:30 pm57 °FPartly cloudy.6 mph88%30.33 "HgN/A
10:00 pm57 °FSprinkles. Partly cloudy.7 mph88%30.33 "HgN/A
9:30 pm57 °FPassing clouds.7 mph88%30.33 "HgN/A
9:00 pm57 °FPassing clouds.6 mph88%30.33 "HgN/A
8:00 pm57 °FSprinkles. Partly cloudy.6 mph88%30.33 "HgN/A
Weather by CustomWeather, © 2017

See weather overviewHow to use our weather pages